Weather in Osinovaya Rechka

Russia / Khabarovsk Krai     48°19′22″N   134°52′49″E
temp.,
°C
wind,
m/s
gust,
m/s
humid.,
%
clouds,
%
prec.,
mm/h
press.,
hPa
HPBL,
m
26 january, tue
tue2601:00−20ne359889 0.0 1030141
04:00−19ne359394 0.0 1027210
07:00−19ne3493100 0.1 1025173
10:00−18ene3496100 1.6 1022143
13:00−14ne2394100 1.5 1019171
16:00−13ne2295100 3.0 1017133
19:00−14nne2297100 0.9 101768
22:00−16nne2298100 1.0 101746
27 january, wed
wed2701:00−18nne1199100 0.1 101621
04:00−20nnw11100100 0.1 101620
07:00−21wnw1199100 0.1 101621
10:00−20wsw129899 0.1 101883
13:00−17wsw248891 0.0 1018432
16:00−17sw358081 0.0 1018505
19:00−22ssw239415 0.0 101924
22:00−21sw239852 0.1 102097
28 january, thu
thu2801:00−24sw339687 0.1 102052
04:00−26sw349265 0.1 102160
07:00−27sw33940 0.0 102245
10:00−25sw23930 0.0 102287
13:00−19ssw11770 0.0 1021380
16:00−19nw00770 0.0 1019388
19:00−25ne11951 0.0 101920
22:00−24nne229251 0.0 101926
29 january, fri
fri2901:00−26nne239475 0.0 101844
04:00−25n349287 0.0 1016112
07:00−25n2395100 0.0 1014137
10:00−24n3593100 0.0 1015261
13:00−22nnw3695100 0.1 1014447
16:00−20nnw3595100 0.8 1014605
19:00−21w2499100 0.6 1016199
22:00−22w2398100 0.9 1017133
30 january, sat
sat3001:00−23wsw2298100 0.3 101997
04:00−24wsw2398100 0.4 1021128
07:00−26ssw2497100 0.1 1023159
10:00−29ssw3494100 0.1 1025167
13:00−27ssw348761 0.0 1025316
16:00−26sw248538 0.0 1024310
19:00−31sw22920 0.0 102525
22:00−31sw229233 0.0 102533